{"data":{"norad_id":29270,"intl_designator":"2006-032A","name":"EUTELSAT 33F","alt_names":[],"object_type":"PAYLOAD","status":"ACTIVE","operator":null,"country":"EUTE","launch_date":"2006-08-04","launch_site_code":"TYMSC","launch_vehicle":null,"mission":null,"orbit_class":"UNKNOWN","rcs_meters":31.6228,"size_class":null,"mass_kg":null,"dimensions":null,"purposes":["comms"],"wikipedia_slug":null,"has_3d_model":false,"image_url":null,"decayed_at":null,"tle_current":{"epoch":"2026-05-25T03:54:01.359936Z","epoch_age_seconds":71574,"freshness":"FRESH","line1":"1 29270U 06032A   26145.16251574  .00000154  00000+0  00000+0 0  9998","line2":"2 29270   1.6043  82.4872 0003600 338.0474 273.8338  1.00274770 47075","mean_motion":1.0027477,"eccentricity":0.00036,"inclination_deg":1.6043,"raan_deg":82.4872,"arg_perigee_deg":338.0474,"mean_anomaly_deg":273.8338,"bstar":0,"rev_number":4707,"period_min":1436.0541540011,"perigee_km":35770.579175826,"apogee_km":35800.937180355,"semimajor_km":42163.895178091,"source":"CELESTRAK","updated_at":"2026-05-25T13:38:13.852351Z"}}}